Tracking 32139 objects as of 16-Nov-2025
HD Live streaming from Space Station
objects crossing your sky now

STARLINK-30300

Track STARLINK-30300 now!
10-day predictions
STARLINK-30300 is classified as:


NORAD ID: 57715
Int'l Code: 2023-129T
Perigee: 565.3 km
Apogee: 567.2 km
Inclination: 43.0 °
Period: 95.8 minutes
Semi major axis: 6937 km
RCS: Unknown
Launch date: August 27, 2023
Source: United States (US)
Launch site: AIR FORCE EASTERN TEST RANGE (AFETR)
Your satellite tracking list
Your tracking list is empty




NASA's NSSDC Master Catalog

Two Line Element Set (TLE):
1 57715U 23129T   25319.47984038 -.00001384  00000-0 -87423-4 0  9991
2 57715  43.0072  20.9334 0001323 157.0543 203.0359 15.02521459123471
Source of the keplerian elements: AFSPC